FW8647 Weather Reports


time (UTC)temp
F
wind
direction
speed
knots
gust
knots
rain 1hr
in
rain 24hr
in
rain mn
in
humidity
%
barometer
mb
20260508091009 41 202 0.0 0.0 0.00 0.00 0.00 81 1014.3
20260508090009 41 202 0.0 0.0 0.00 0.00 0.00 82 1014.1
20260508085009 41 204 0.0 0.9 0.00 0.00 0.00 82 1014.3
20260508084010 41 202 0.0 0.0 0.00 0.00 0.00 82 1014.2
20260508083009 41 219 0.0 0.0 0.00 0.00 0.00 82 1014.4
20260508082008 41 216 2.6 4.3 0.00 0.00 0.00 82 1014.3
20260508081007 41 216 0.9 1.7 0.00 0.00 0.00 83 1014.3
20260508080002 41 226 0.9 0.9 0.00 0.00 0.00 83 1014.5
20260508074957 41 225 2.6 2.6 0.00 0.00 0.00 83 1014.4
20260508073956 41 244 0.9 2.6 0.00 0.00 0.00 83 1014.3
20260508072956 41 231 0.0 0.9 0.00 0.00 0.00 83 1014.4
20260508071955 41 280 1.7 2.6 0.00 0.00 0.00 83 1014.5
20260508070951 40 250 0.0 0.0 0.00 0.00 0.00 84 1014.5
20260508065946 40 313 1.7 2.6 0.00 0.00 0.00 84 1014.7
20260508064942 41 315 0.9 2.6 0.00 0.00 0.00 83 1014.7
20260508063942 41 315 1.7 2.6 0.00 0.00 0.00 81 1014.8
20260508062937 41 304 0.0 0.0 0.00 0.00 0.00 79 1014.9
20260508061937 42 254 0.0 0.0 0.00 0.00 0.00 78 1014.9
20260508060937 42 277 0.9 2.6 0.00 0.00 0.00 76 1015.2
20260508055936 43 262 1.7 2.6 0.00 0.00 0.00 71 1014.9
20260508054935 43 258 3.5 4.3 0.00 0.00 0.00 69 1015.2
20260508053935 42 222 0.0 0.0 0.00 0.00 0.00 71 1015.1
20260508052930 42 189 0.0 0.0 0.00 0.00 0.00 69 1014.9
20260508051929 42 203 0.0 0.0 0.00 0.00 0.00 70 1015.0
20260508050927 42 197 0.0 0.0 0.00 0.00 0.00 69 1015.2
20260508045926 42 193 0.0 0.0 0.00 0.00 0.00 66 1014.9
20260508044921 42 185 0.0 0.0 0.00 0.00 0.00 66 1015.1
20260508043919 42 196 0.0 0.0 0.00 0.00 0.00 65 1015.3
20260508042919 42 212 0.0 0.0 0.00 0.00 0.00 68 1015.4
20260508041914 41 184 0.9 0.9 0.00 0.00 0.00 73 1015.2
20260508040913 41 183 0.0 0.0 0.00 0.00 0.00 74 1015.1
20260508035908 42 231 0.0 0.0 0.00 0.00 0.00 73 1015.1
20260508034907 42 232 0.0 0.0 0.00 0.00 0.00 71 1015.0
20260508033907 42 234 0.0 0.0 0.00 0.00 0.00 68 1015.0
20260508032903 42 238 0.0 0.0 0.00 0.00 0.00 65 1015.0
20260508031902 42 283 0.0 0.0 0.00 0.00 0.00 66 1014.8
20260508030901 42 285 0.0 0.0 0.00 0.00 0.00 67 1015.1
20260508025856 42 324 0.0 0.0 0.00 0.00 0.00 68 1015.1
20260508024855 42 328 0.0 0.0 0.00 0.00 0.00 67 1015.1
20260508023854 43 323 0.0 0.0 0.00 0.00 0.00 67 1015.0
20260508022854 43 296 0.0 0.0 0.00 0.00 0.00 66 1015.1
20260508021852 43 311 0.0 0.0 0.00 0.00 0.00 67 1014.9
20260508020850 43 314 0.0 0.0 0.00 0.00 0.00 68 1015.0
20260508015845 43 313 0.0 0.0 0.00 0.00 0.00 69 1015.0
20260508014845 43 308 0.0 0.0 0.00 0.00 0.00 69 1015.0
20260508013843 44 317 0.0 0.0 0.00 0.00 0.00 69 1014.9
20260508012843 44 309 0.0 0.0 0.00 0.00 0.00 69 1014.7
20260508011838 44 321 0.0 0.0 0.00 0.00 0.00 69 1014.6
20260508010838 44 250 0.0 0.0 0.00 0.00 0.00 70 1014.7
20260508005838 44 308 0.0 0.0 0.00 0.00 0.00 70 1014.4
20260508004837 44 227 0.0 0.0 0.00 0.00 0.00 71 1014.4
20260508003835 44 214 0.0 0.0 0.00 0.00 0.00 71 1014.4
20260508002835 45 209 0.0 0.0 0.00 0.00 0.00 70 1014.1
20260508001833 45 213 0.0 0.0 0.00 0.00 0.00 70 1014.1
20260508000832 46 215 0.0 0.0 0.00 0.00 0.00 68 1013.9
20260507235831 46 216 0.0 0.0 0.00 0.00 0.00 68 1014.1
20260507234831 45 229 0.0 0.0 0.00 0.00 0.00 68 1014.1
20260507233829 45 277 0.0 0.0 0.00 0.00 0.00 69 1013.9
20260507232825 45 218 0.0 0.0 0.00 0.00 0.00 69 1013.9
20260507231825 45 265 0.0 0.0 0.00 0.00 0.00 68 1014.0
20260507230823 46 325 0.0 0.0 0.00 0.00 0.00 68 1014.0
20260507225821 46 278 0.0 0.0 0.00 0.00 0.00 70 1014.0
20260507224819 45 246 0.0 0.9 0.00 0.00 0.00 71 1014.2
20260507223818 45 342 0.9 1.7 0.00 0.00 0.00 72 1014.3
20260507222817 45 311 0.0 0.0 0.00 0.00 0.00 72 1014.4
20260507221817 44 320 1.7 2.6 0.00 0.00 0.00 73 1014.2
20260507220815 44 318 0.0 0.9 0.00 0.00 0.00 73 1014.1
20260507215815 45 306 3.5 7.0 0.00 0.00 0.00 72 1014.4
20260507214815 46 252 0.9 2.6 0.00 0.00 0.00 72 1014.2
20260507213813 46 222 0.9 2.6 0.00 0.00 0.00 72 1014.1
20260507212813 45 195 0.0 0.0 0.00 0.00 0.00 75 1014.0
20260507211812 45 149 0.9 2.6 0.00 0.00 0.00 74 1013.9
20260507210811 45 208 1.7 2.6 0.00 0.00 0.00 77 1014.0
20260507205810 45 231 4.3 7.0 0.00 0.00 0.00 75 1013.9
20260507204810 46 217 4.3 6.1 0.00 0.00 0.00 77 1013.7
20260507203805 46 206 4.3 6.1 0.00 0.00 0.00 72 1013.7
20260507202805 49 207 3.5 4.3 0.00 0.00 0.00 62 1013.5
20260507201801 49 242 2.6 4.3 0.00 0.00 0.00 54 1013.5
20260507200801 49 236 3.5 4.3 0.00 0.00 0.00 55 1013.4
20260507195759 49 201 2.6 5.2 0.00 0.00 0.00 55 1013.5
20260507194754 49 224 0.0 0.0 0.00 0.00 0.00 52 1013.5
20260507193752 50 248 5.2 7.0 0.00 0.00 0.00 49 1013.5
20260507192751 50 253 3.5 5.2 0.00 0.00 0.00 49 1013.5
20260507191750 50 287 0.9 1.7 0.00 0.00 0.00 48 1013.5
20260507190749 51 174 2.6 5.2 0.00 0.00 0.00 48 1013.6
20260507185746 51 301 2.6 5.2 0.00 0.00 0.00 47 1013.6
20260507184746 51 217 2.6 5.2 0.00 0.00 0.00 47 1013.7
20260507183746 51 301 3.5 7.8 0.00 0.00 0.00 47 1013.6
20260507182741 51 281 3.5 5.2 0.00 0.00 0.00 48 1013.8
20260507181739 50 199 2.6 5.2 0.00 0.00 0.00 46 1013.7
20260507180737 51 306 5.2 7.0 0.00 0.00 0.00 48 1013.7
20260507175736 51 251 5.2 7.8 0.00 0.00 0.00 51 1013.9
20260507174736 50 229 0.9 2.6 0.00 0.00 0.00 51 1013.9
20260507173732 50 258 0.9 1.7 0.00 0.00 0.00 52 1014.1
20260507172731 50 272 3.5 5.2 0.00 0.00 0.00 51 1014.2
20260507171728 49 262 1.7 2.6 0.00 0.00 0.00 52 1014.4
20260507170728 49 243 1.7 2.6 0.00 0.00 0.00 54 1014.5
20260507165726 49 338 4.3 6.1 0.00 0.00 0.00 54 1014.2
20260507164725 49 234 1.7 2.6 0.00 0.00 0.00 53 1014.6
20260507163725 49 201 0.0 0.0 0.00 0.00 0.00 53 1014.5
20260507162724 49 311 0.0 1.7 0.00 0.00 0.00 54 1014.6
20260507161723 48 175 0.0 0.9 0.00 0.00 0.00 55 1014.7
20260507160720 49 223 1.7 4.3 0.00 0.00 0.00 56 1014.7
20260507155719 49 245 1.7 2.6 0.00 0.00 0.00 53 1014.6
20260507154718 49 208 0.0 0.0 0.00 0.00 0.00 57 1014.9
20260507153717 48 213 2.6 5.2 0.00 0.00 0.00 58 1014.9
20260507152717 49 244 0.9 1.7 0.00 0.00 0.00 57 1014.9
20260507151714 48 228 0.0 0.0 0.00 0.00 0.00 56 1014.9
20260507150714 48 200 0.0 0.0 0.00 0.00 0.00 56 1014.9
20260507145712 48 207 0.0 0.9 0.00 0.00 0.00 59 1014.9
20260507144711 47 210 0.0 0.0 0.00 0.00 0.00 60 1015.1
20260507143706 46 307 0.0 0.0 0.00 0.00 0.00 65 1014.8
20260507142704 46 29 0.0 0.0 0.00 0.00 0.00 64 1015.0
20260507141703 46 195 0.9 0.9 0.00 0.00 0.00 64 1014.9
20260507140702 46 340 0.0 0.0 0.00 0.00 0.00 66 1015.2
20260507135657 45 350 0.0 0.0 0.00 0.00 0.00 68 1015.3
20260507134656 46 320 2.6 4.3 0.00 0.00 0.00 68 1015.4
20260507133654 44 297 0.0 0.0 0.00 0.00 0.00 71 1015.3
20260507132655 44 248 0.9 0.9 0.00 0.00 0.00 71 1015.4
20260507131653 44 260 0.0 0.0 0.00 0.00 0.00 72 1015.4
20260507130653 43 195 0.0 0.0 0.00 0.00 0.00 73 1015.4
20260507125650 43 182 0.0 0.0 0.00 0.00 0.00 73 1015.3
20260507124649 44 192 0.0 0.0 0.00 0.00 0.00 74 1015.5
20260507123645 43 177 0.0 0.0 0.00 0.00 0.00 73 1015.5
20260507122643 42 178 0.0 0.0 0.00 0.00 0.00 74 1015.3
20260507121641 42 183 0.0 0.0 0.00 0.00 0.00 75 1015.5
20260507120639 41 186 0.0 0.0 0.00 0.00 0.00 76 1015.6
20260507115638 41 189 0.0 0.0 0.00 0.00 0.00 76 1015.3
20260507114636 40 152 0.0 0.0 0.00 0.00 0.00 76 1015.3
20260507113631 39 187 0.0 0.0 0.00 0.00 0.00 78 1015.4
20260507112631 38 186 0.0 0.0 0.00 0.00 0.00 80 1015.4
20260507111631 37 182 0.0 0.0 0.00 0.00 0.00 80 1015.3
20260507110629 37 194 0.0 0.0 0.00 0.00 0.00 80 1014.9
20260507105629 37 187 0.0 0.0 0.00 0.00 0.00 81 1014.9
20260507104628 37 186 0.0 0.0 0.00 0.00 0.00 81 1015.0
20260507103626 37 191 0.0 0.0 0.00 0.00 0.00 81 1015.1
20260507102626 37 195 0.0 0.0 0.00 0.00 0.00 81 1014.9
20260507101624 36 201 0.0 0.0 0.00 0.00 0.00 80 1015.0
20260507100623 36 201 0.0 0.0 0.00 0.00 0.00 80 1015.3
20260507095619 37 201 0.0 0.0 0.00 0.00 0.00 79 1015.2
20260507094617 37 201 0.0 0.0 0.00 0.00 0.00 78 1015.0
20260507093612 37 201 0.0 0.0 0.00 0.00 0.00 78 1015.2
20260507092612 37 201 0.0 0.0 0.00 0.00 0.00 77 1015.2
20260507091612 37 201 0.0 0.0 0.00 0.00 0.00 77 1015.3